User: anonymous   Login
Location: Nitra
(48.3167°N, 18.0833°E)
Time: 04:36:21
(UTC+01:00)
Language:

STARLINK-1742 - Orbit

View from above orbital plane
View from above orbital plane
View from above satellite
View from above satellite

Ground track
Ground track

The orbit data is extracted from the following two-line orbital elements,

1 46376U 20062BD  20339.66667824 -.00251931  00000-0 -28185-2 0  9997
2 46376  52.9980 338.0110 0001980  28.1426 304.5213 15.62867753 15260
Epoch (UTC): 04 December 2020 16:00:01
Eccentricity: 0.0001980
inclination: 52.9980°
perigee height: 378 km
apogee height: 381 km
right ascension of ascending node: 338.0110°
argument of perigee: 28.1426°
revolutions per day: 15.62867753
mean anomaly at epoch: 304.5213°
orbit number at epoch: 1526

The dashed part of the orbit path shows where the satellite is in the earth's shadow,  

DLR